This is the latest recevied weather packets stored in our database for station/object SP8IZA-1. If no packets are shown the sender has not sent any weather packets the latest 10 day(s).
| Time | Temp. | Humidity | Pressure | Rain* | Wind** | Luminosity | Snow |
|---|---|---|---|---|---|---|---|
| 1777896229 | 32.78° C | 33% | 1010.5 hPa | - | - | - | - |
| 1777895929 | 33.33° C | 33% | 1010.6 hPa | - | - | - | - |
| 1777895628 | 32.78° C | 33% | 1010.6 hPa | - | - | - | - |
| 1777895328 | 32.78° C | 33% | 1010.6 hPa | - | - | - | - |
| 1777895027 | 32.78° C | 33% | 1010.7 hPa | - | - | - | - |
| 1777894727 | 32.78° C | 33% | 1010.7 hPa | - | - | - | - |
| 1777894426 | 32.78° C | 33% | 1010.9 hPa | - | - | - | - |
| 1777894126 | 32.78° C | 33% | 1010.8 hPa | - | - | - | - |
| 1777893825 | 32.22° C | 33% | 1010.9 hPa | - | - | - | - |
| 1777893525 | 32.22° C | 34% | 1010.9 hPa | - | - | - | - |
| 1777893224 | 31.67° C | 34% | 1010.9 hPa | - | - | - | - |
| 1777892924 | 31.67° C | 34% | 1010.9 hPa | - | - | - | - |
| 1777892623 | 31.11° C | 34% | 1011 hPa | - | - | - | - |
| 1777892323 | 31.11° C | 34% | 1011.1 hPa | - | - | - | - |
| 1777892022 | 31.11° C | 34% | 1011.1 hPa | - | - | - | - |
| 1777891722 | 31.11° C | 34% | 1011.1 hPa | - | - | - | - |
| 1777891421 | 30.56° C | 34% | 1011.2 hPa | - | - | - | - |
| 1777891121 | 30.56° C | 34% | 1011.3 hPa | - | - | - | - |
| 1777890820 | 30.56° C | 34% | 1011.2 hPa | - | - | - | - |
| 1777890520 | 30.56° C | 34% | 1011.4 hPa | - | - | - | - |
| 1777890219 | 30° C | 34% | 1011.5 hPa | - | - | - | - |
| 1777889919 | 30° C | 35% | 1011.6 hPa | - | - | - | - |
| 1777889618 | 30° C | 35% | 1011.6 hPa | - | - | - | - |
| 1777889318 | 29.44° C | 35% | 1011.7 hPa | - | - | - | - |
| 1777889017 | 29.44° C | 35% | 1011.7 hPa | - | - | - | - |
* Rain since midnight (hover to see other rain measurements)
** Current wind speed in m/s (hover to see current wind gust speed)